Time,TemperatureF,DewpointF,PressureIn,WindDirection,WindDirectionDegrees,WindSpeedMPH,WindSpeedGustMPH,Humidity,HourlyPrecipIn,Conditions,Clouds,dailyrainin,SoftwareType,DateUTC
2013-11-15 00:07:00,41.4,27.7,30.06,WSW,247,0.0,-999.0,58,-99.99,,,0.00,Acu-Link.com,2013-11-15 06:07:00,
2013-11-15 00:22:00,41.0,27.8,30.07,SW,225,0.0,-999.0,59,-99.99,,,0.00,Acu-Link.com,2013-11-15 06:22:00,
2013-11-15 00:38:00,40.6,27.4,30.07,South,180,1.1,-999.0,59,-99.99,,,0.00,Acu-Link.com,2013-11-15 06:38:00,
2013-11-15 00:53:00,40.3,27.1,30.06,SSW,202,3.7,-999.0,59,-99.99,,,0.00,Acu-Link.com,2013-11-15 06:53:00,
2013-11-15 01:08:00,40.5,27.3,30.05,SSW,202,2.2,-999.0,59,-99.99,,,0.00,Acu-Link.com,2013-11-15 07:08:00,
2013-11-15 01:24:00,39.9,27.2,30.06,West,270,0.0,-999.0,60,-99.99,,,0.00,Acu-Link.com,2013-11-15 07:24:00,
2013-11-15 01:39:00,39.7,27.4,30.06,East,90,0.0,-999.0,61,-99.99,,,0.00,Acu-Link.com,2013-11-15 07:39:00,
2013-11-15 01:54:00,39.7,27.8,30.05,ESE,112,0.0,-999.0,62,-99.99,,,0.00,Acu-Link.com,2013-11-15 07:54:00,
2013-11-15 02:10:00,40.1,27.7,30.05,SSE,157,2.7,-999.0,61,-99.99,,,0.00,Acu-Link.com,2013-11-15 08:10:00,
2013-11-15 02:25:00,40.6,27.8,30.04,South,180,6.8,-999.0,60,-99.99,,,0.00,Acu-Link.com,2013-11-15 08:25:00,
2013-11-15 02:40:00,40.8,28.0,30.05,SE,135,0.0,-999.0,60,-99.99,,,0.00,Acu-Link.com,2013-11-15 08:40:00,
2013-11-15 02:55:00,40.8,28.4,30.04,South,180,4.7,-999.0,61,-99.99,,,0.00,Acu-Link.com,2013-11-15 08:55:00,
2013-11-15 03:10:00,41.0,28.2,30.04,SW,225,2.2,-999.0,60,-99.99,,,0.00,Acu-Link.com,2013-11-15 09:10:00,
2013-11-15 03:26:00,41.2,28.0,30.05,SW,225,2.2,-999.0,59,-99.99,,,0.00,Acu-Link.com,2013-11-15 09:26:00,
2013-11-15 03:41:00,41.5,27.8,30.06,SSW,202,4.2,-999.0,58,-99.99,,,0.00,Acu-Link.com,2013-11-15 09:41:00,
2013-11-15 03:56:00,41.5,28.3,30.05,WSW,247,2.2,-999.0,59,-99.99,,,0.00,Acu-Link.com,2013-11-15 09:56:00,
2013-11-15 04:11:00,41.5,27.8,30.05,SSW,202,1.7,-999.0,58,-99.99,,,0.00,Acu-Link.com,2013-11-15 10:11:00,
2013-11-15 04:26:00,41.9,28.2,30.05,South,180,2.2,-999.0,58,-99.99,,,0.00,Acu-Link.com,2013-11-15 10:26:00,
2013-11-15 04:42:00,41.7,28.0,30.05,SSW,202,1.1,-999.0,58,-99.99,,,0.00,Acu-Link.com,2013-11-15 10:42:00,
2013-11-15 04:57:00,41.9,28.2,30.05,South,180,1.1,-999.0,58,-99.99,,,0.00,Acu-Link.com,2013-11-15 10:57:00,
2013-11-15 05:12:00,42.1,28.4,30.05,SSE,157,2.7,-999.0,58,-99.99,,,0.00,Acu-Link.com,2013-11-15 11:12:00,
2013-11-15 05:28:00,42.1,28.4,30.04,WSW,247,1.7,-999.0,58,-99.99,,,0.00,Acu-Link.com,2013-11-15 11:28:00,
2013-11-15 05:43:00,41.9,28.2,30.04,SSE,157,1.7,-999.0,58,-99.99,,,0.00,Acu-Link.com,2013-11-15 11:43:00,
2013-11-15 05:58:00,41.9,28.6,30.04,West,270,1.7,-999.0,59,-99.99,,,0.00,Acu-Link.com,2013-11-15 11:58:00,
2013-11-15 06:13:00,41.9,29.0,30.04,SSW,202,2.2,-999.0,60,-99.99,,,0.00,Acu-Link.com,2013-11-15 12:13:00,
2013-11-15 06:29:00,41.9,29.0,30.05,West,270,1.7,-999.0,60,-99.99,,,0.00,Acu-Link.com,2013-11-15 12:29:00,
2013-11-15 06:44:00,41.9,29.4,30.05,South,180,0.0,-999.0,61,-99.99,,,0.00,Acu-Link.com,2013-11-15 12:44:00,
2013-11-15 06:59:00,42.1,29.6,30.05,SSE,157,1.7,-999.0,61,-99.99,,,0.00,Acu-Link.com,2013-11-15 12:59:00,
2013-11-15 07:14:00,42.3,29.8,30.06,SW,225,1.7,-999.0,61,-99.99,,,0.00,Acu-Link.com,2013-11-15 13:14:00,
2013-11-15 07:30:00,42.6,30.5,30.07,South,180,0.0,-999.0,62,-99.99,,,0.00,Acu-Link.com,2013-11-15 13:30:00,
2013-11-15 07:45:00,43.0,30.9,30.06,SSE,157,2.2,-999.0,62,-99.99,,,0.00,Acu-Link.com,2013-11-15 13:45:00,
2013-11-15 08:00:00,43.2,31.9,30.07,East,90,4.2,-999.0,64,-99.99,,,0.00,Acu-Link.com,2013-11-15 14:00:00,
2013-11-15 08:15:00,43.5,32.1,30.06,SSW,202,4.7,-999.0,64,-99.99,,,0.00,Acu-Link.com,2013-11-15 14:15:00,
2013-11-15 08:31:00,44.2,33.2,30.06,South,180,4.2,-999.0,65,-99.99,,,0.00,Acu-Link.com,2013-11-15 14:31:00,
2013-11-15 08:46:00,45.1,34.0,30.06,West,270,2.7,-999.0,65,-99.99,,,0.00,Acu-Link.com,2013-11-15 14:46:00,
2013-11-15 09:01:00,45.3,34.2,30.05,SSW,202,1.7,-999.0,65,-99.99,,,0.00,Acu-Link.com,2013-11-15 15:01:00,
2013-11-15 09:16:00,46.0,35.3,30.06,South,180,3.2,-999.0,66,-99.99,,,0.00,Acu-Link.com,2013-11-15 15:16:00,
2013-11-15 09:31:00,47.1,35.6,30.06,SSE,157,2.2,-999.0,64,-99.99,,,0.00,Acu-Link.com,2013-11-15 15:31:00,
2013-11-15 09:47:00,48.9,36.5,30.07,SSE,157,5.8,-999.0,62,-99.99,,,0.00,Acu-Link.com,2013-11-15 15:47:00,
2013-11-15 10:02:00,48.9,36.5,30.07,West,270,1.7,-999.0,62,-99.99,,,0.00,Acu-Link.com,2013-11-15 16:02:00,
2013-11-15 10:17:00,48.6,36.6,30.07,West,270,1.7,-999.0,63,-99.99,,,0.00,Acu-Link.com,2013-11-15 16:17:00,
2013-11-15 10:32:00,48.6,37.0,30.06,ESE,112,4.2,-999.0,64,-99.99,,,0.00,Acu-Link.com,2013-11-15 16:32:00,
2013-11-15 10:48:00,48.7,36.3,30.05,SSW,202,2.7,-999.0,62,-99.99,,,0.00,Acu-Link.com,2013-11-15 16:48:00,
2013-11-15 11:03:00,49.3,36.8,30.05,SSE,157,3.7,-999.0,62,-99.99,,,0.00,Acu-Link.com,2013-11-15 17:03:00,
2013-11-15 11:18:00,49.5,37.4,30.05,ESE,112,4.2,-999.0,63,-99.99,,,0.00,Acu-Link.com,2013-11-15 17:18:00,
2013-11-15 11:34:00,48.4,38.0,30.03,SSW,202,3.7,-999.0,67,-99.99,,,0.00,Acu-Link.com,2013-11-15 17:34:00,
2013-11-15 11:49:00,48.4,40.2,30.02,SSE,157,5.3,-999.0,73,-99.99,,,0.00,Acu-Link.com,2013-11-15 17:49:00,
2013-11-15 12:04:00,48.4,40.8,30.02,SSE,157,4.2,-999.0,75,-99.99,,,0.00,Acu-Link.com,2013-11-15 18:04:00,
2013-11-15 12:19:00,50.0,41.3,30.02,SSW,202,4.7,-999.0,72,-99.99,,,0.00,Acu-Link.com,2013-11-15 18:19:00,
2013-11-15 12:34:00,49.5,41.2,30.00,SW,225,3.7,-999.0,73,-99.99,,,0.00,Acu-Link.com,2013-11-15 18:34:00,
2013-11-15 12:50:00,50.2,41.5,29.99,SW,225,4.7,-999.0,72,-99.99,,,0.00,Acu-Link.com,2013-11-15 18:50:00,
2013-11-15 13:05:00,52.7,41.7,29.98,SSW,202,5.8,-999.0,66,-99.99,,,0.00,Acu-Link.com,2013-11-15 19:05:00,
2013-11-15 13:20:00,53.1,42.4,29.97,SSE,157,4.7,-999.0,67,-99.99,,,0.00,Acu-Link.com,2013-11-15 19:20:00,
2013-11-15 13:35:00,52.7,42.1,29.97,SSW,202,3.7,-999.0,67,-99.99,,,0.00,Acu-Link.com,2013-11-15 19:35:00,
2013-11-15 13:50:00,51.8,41.6,29.97,ESE,112,5.8,-999.0,68,-99.99,,,0.00,Acu-Link.com,2013-11-15 19:50:00,
2013-11-15 14:05:00,51.6,41.8,29.96,South,180,3.2,-999.0,69,-99.99,,,0.00,Acu-Link.com,2013-11-15 20:05:00,
2013-11-15 14:20:00,51.4,42.3,29.97,SSW,202,3.2,-999.0,71,-99.99,,,0.00,Acu-Link.com,2013-11-15 20:20:00,
2013-11-15 14:35:00,51.1,42.4,29.97,SSW,202,2.7,-999.0,72,-99.99,,,0.00,Acu-Link.com,2013-11-15 20:35:00,
2013-11-15 14:50:00,50.9,42.6,29.97,South,180,3.7,-999.0,73,-99.99,,,0.00,Acu-Link.com,2013-11-15 20:50:00,
2013-11-15 15:06:00,50.2,42.6,29.96,South,180,4.2,-999.0,75,-99.99,,,0.00,Acu-Link.com,2013-11-15 21:06:00,
2013-11-15 15:21:00,50.0,43.1,29.96,SSW,202,2.7,-999.0,77,-99.99,,,0.00,Acu-Link.com,2013-11-15 21:21:00,
2013-11-15 15:36:00,49.8,42.9,29.96,SW,225,2.7,-999.0,77,-99.99,,,0.00,Acu-Link.com,2013-11-15 21:36:00,
2013-11-15 15:52:00,49.6,43.0,29.96,South,180,2.2,-999.0,78,-99.99,,,0.00,Acu-Link.com,2013-11-15 21:52:00,
2013-11-15 16:07:00,49.5,43.3,29.96,SSW,202,2.7,-999.0,79,-99.99,,,0.00,Acu-Link.com,2013-11-15 22:07:00,
2013-11-15 16:22:00,49.3,43.7,29.96,West,270,2.7,-999.0,81,-99.99,,,0.00,Acu-Link.com,2013-11-15 22:22:00,
2013-11-15 16:37:00,49.3,43.7,29.95,ENE,67,3.7,-999.0,81,-99.99,,,0.00,Acu-Link.com,2013-11-15 22:37:00,
2013-11-15 16:53:00,49.3,44.0,29.96,SSE,157,1.1,-999.0,82,-99.99,,,0.00,Acu-Link.com,2013-11-15 22:53:00,
2013-11-15 17:08:00,49.1,43.8,29.95,ESE,112,2.2,-999.0,82,-99.99,,,0.00,Acu-Link.com,2013-11-15 23:08:00,
2013-11-15 17:23:00,48.9,43.7,29.94,South,180,2.7,-999.0,82,-99.99,,,0.00,Acu-Link.com,2013-11-15 23:23:00,
2013-11-15 17:39:00,48.9,44.0,29.93,WSW,247,1.7,-999.0,83,-99.99,,,0.00,Acu-Link.com,2013-11-15 23:39:00,
2013-11-15 17:54:00,48.7,43.8,29.94,West,270,0.0,-999.0,83,-99.99,,,0.00,Acu-Link.com,2013-11-15 23:54:00,
2013-11-15 18:09:00,48.7,44.1,29.96,South,180,1.7,-999.0,84,-99.99,,,0.00,Acu-Link.com,2013-11-16 00:09:00,
2013-11-15 18:24:00,48.9,44.6,29.97,SE,135,2.2,-999.0,85,-99.99,,,0.00,Acu-Link.com,2013-11-16 00:24:00,
2013-11-15 18:40:00,48.9,44.6,29.96,SSE,157,2.7,-999.0,85,-99.99,,,0.00,Acu-Link.com,2013-11-16 00:40:00,
2013-11-15 18:55:00,48.9,44.9,29.95,SE,135,1.1,-999.0,86,-99.99,,,0.00,Acu-Link.com,2013-11-16 00:55:00,
2013-11-15 19:10:00,48.9,45.2,29.95,SSE,157,2.7,-999.0,87,-99.99,,,0.00,Acu-Link.com,2013-11-16 01:10:00,
2013-11-15 19:26:00,48.9,45.2,29.94,SW,225,2.7,-999.0,87,-99.99,,,0.00,Acu-Link.com,2013-11-16 01:26:00,
2013-11-15 19:41:00,48.7,45.0,29.95,SE,135,3.2,-999.0,87,-99.99,,,0.00,Acu-Link.com,2013-11-16 01:41:00,
2013-11-15 19:56:00,49.1,45.4,29.96,South,180,2.2,-999.0,87,-99.99,,,0.00,Acu-Link.com,2013-11-16 01:56:00,
2013-11-15 20:11:00,49.3,45.6,29.95,ESE,112,2.2,-999.0,87,-99.99,,,0.00,Acu-Link.com,2013-11-16 02:11:00,
2013-11-15 20:26:00,49.3,45.6,29.95,South,180,3.2,-999.0,87,-99.99,,,0.00,Acu-Link.com,2013-11-16 02:26:00,
2013-11-15 20:42:00,49.5,46.1,29.94,East,90,1.1,-999.0,88,-99.99,,,0.00,Acu-Link.com,2013-11-16 02:42:00,
2013-11-15 20:57:00,50.0,46.6,29.94,SSE,157,0.0,-999.0,88,-99.99,,,0.00,Acu-Link.com,2013-11-16 02:57:00,
2013-11-15 21:12:00,50.4,46.7,29.94,SSW,202,8.9,-999.0,87,-99.99,,,0.00,Acu-Link.com,2013-11-16 03:12:00,
2013-11-15 21:27:00,50.5,46.8,29.94,SSE,157,4.7,-999.0,87,-99.99,,,0.00,Acu-Link.com,2013-11-16 03:27:00,
2013-11-15 21:42:00,50.7,47.3,29.95,SSE,157,2.7,-999.0,88,-99.99,,,0.00,Acu-Link.com,2013-11-16 03:42:00,
2013-11-15 21:58:00,50.7,47.3,29.94,SSE,157,5.3,-999.0,88,-99.99,,,0.00,Acu-Link.com,2013-11-16 03:58:00,
2013-11-15 22:13:00,50.9,47.8,29.95,South,180,3.7,-999.0,89,-99.99,,,0.00,Acu-Link.com,2013-11-16 04:13:00,
2013-11-15 22:28:00,50.5,47.4,29.95,NNE,22,2.7,-999.0,89,-99.99,,,0.00,Acu-Link.com,2013-11-16 04:28:00,
2013-11-15 22:43:00,50.4,47.3,29.94,ENE,67,5.3,-999.0,89,-99.99,,,0.00,Acu-Link.com,2013-11-16 04:43:00,
2013-11-15 22:58:00,50.0,47.5,29.93,South,180,1.7,-999.0,91,-99.99,,,0.00,Acu-Link.com,2013-11-16 04:58:00,
2013-11-15 23:14:00,50.4,47.9,29.94,SSW,202,2.7,-999.0,91,-99.99,,,0.00,Acu-Link.com,2013-11-16 05:14:00,
2013-11-15 23:29:00,50.5,48.0,29.94,South,180,1.1,-999.0,91,-99.99,,,0.00,Acu-Link.com,2013-11-16 05:29:00,
2013-11-15 23:44:00,50.4,48.2,29.93,West,270,2.7,-999.0,92,-99.99,,,0.00,Acu-Link.com,2013-11-16 05:44:00,